This is the latest recevied weather packets stored in our database for station/object OE9MNR-10. If no packets are shown the sender has not sent any weather packets the latest 10 day(s).
| Time | Temp. | Humidity | Pressure | Rain* | Wind** | Luminosity | Snow |
|---|---|---|---|---|---|---|---|
| 1777285416 | 17.78° C | 97% | 971.8 hPa | - | - | - | - |
| 1777285116 | 17.78° C | 97% | 971.8 hPa | - | - | - | - |
| 1777284816 | 17.78° C | 97% | 971.9 hPa | - | - | - | - |
| 1777284516 | 17.78° C | 97% | 971.9 hPa | - | - | - | - |
| 1777284216 | 18.33° C | 97% | 972 hPa | - | - | - | - |
| 1777283916 | 17.78° C | 97% | 972.1 hPa | - | - | - | - |
| 1777283616 | 17.78° C | 97% | 972.2 hPa | - | - | - | - |
| 1777283316 | 17.22° C | 97% | 972.2 hPa | - | - | - | - |
| 1777283016 | 17.22° C | 97% | 972.3 hPa | - | - | - | - |
| 1777282416 | 16.67° C | 98% | 972.4 hPa | - | - | - | - |
| 1777282116 | 16.67° C | 98% | 972.6 hPa | - | - | - | - |
| 1777281816 | 16.11° C | 98% | 972.6 hPa | - | - | - | - |
| 1777281516 | 16.67° C | 99% | 972.7 hPa | - | - | - | - |
| 1777281216 | 16.11° C | 98% | 972.9 hPa | - | - | - | - |
| 1777280916 | 16.11° C | 98% | 972.9 hPa | - | - | - | - |
| 1777280615 | 15.56° C | 99% | 972.9 hPa | - | - | - | - |
| 1777280315 | 15.56° C | 99% | 972.9 hPa | - | - | - | - |
| 1777280016 | 15.56° C | 99% | 973 hPa | - | - | - | - |
| 1777279716 | 15° C | 100% | 973 hPa | - | - | - | - |
| 1777279116 | 14.44° C | 100% | 973 hPa | - | - | - | - |
| 1777278815 | 14.44° C | 100% | 973.1 hPa | - | - | - | - |
| 1777278515 | 13.89° C | 100% | 973.1 hPa | - | - | - | - |
| 1777278215 | 14.44° C | 100% | 973.1 hPa | - | - | - | - |
| 1777277915 | 14.44° C | 100% | 973 hPa | - | - | - | - |
| 1777277615 | 13.89° C | 100% | 973.1 hPa | - | - | - | - |
* Rain since midnight (hover to see other rain measurements)
** Current wind speed in m/s (hover to see current wind gust speed)